Regional Weather Roundup
Issued by NWS

Home | Current Version | Previous Version | Text Only | Print | Product List | Glossary On
Versions: 1 2 3 4 5 6 7 8 9 10 11 12 13 14 15 16 17 18 19 20 21 22 23 24 25 26 27 28 29 30 31 32 33 34 35 36 37 38 39 40 41 42 43 44 45 46 47 48 49 50
005
ASUS44 KLIX 232205
RWRLA
LOUISIANA WEATHER ROUNDUP
NATIONAL WEATHER SERVICE NEW ORLEANS LA
400 PM CST SUN NOV 23 2014

NOTE: "FAIR" INDICATES FEW OR NO CLOUDS BELOW 12,000 FEET WITH NO
      SIGNIFICANT WEATHER AND/OR OBSTRUCTIONS TO VISIBILITY.
      SKY/WX - SKY CONDITION AND SIGNIFICANT WEATHER.
      TMP - AIR TEMPERATURE.    DP   - DEWPOINT TEMPERATURE.
      RH  - RELATIVE HUMIDITY.  PRES - PRESSURE.
      HX  - HEAT INDEX.         WCI  - WIND CHILL INDEX.

*  THESE STATIONS ARE NOT NWS OR FAA STATIONS AND ARE NOT UNDER
   NWS QUALITY CONTROL.

LAZ040-048-061>063-065-066-069-232300-
SOUTHEAST LOUISIANA

CITY           SKY/WX    TMP DP  RH WIND       PRES   REMARKS
N.O. AUDUBON     N/A     73  62  68 MISG        N/A
N.O. INTL ARPT MOSUNNY   75  57  53 SW13      29.65R
N.O. LAKEFRONT SUNNY     73  57  57 SW21G26   29.65R
N.O. DOWNTOWN* FAIR      73  59  60 S10G18    29.66S
SLIDELL        SUNNY     73  59  61 SW8       29.64R
BATON ROUGE    MOSUNNY   73  57  57 SW20G28   29.61R
BOOTHVILLE     SUNNY     69  66  90 S15       29.70R
BELLE CHASSE   MOSUNNY   75  60  59 SW16G24   29.66R
BOGALUSA*        N/A     74  58  56 SW16G26   29.64R
NEW ROADS*     FAIR      73  57  56 SW16G22   29.60R
GONZALES*      MOCLDY    72  63  72 SW12      29.64R
HAMMOND*       SUNNY     73  57  56 SW15G23   29.65R
HOUMA*         MOSUNNY   73  64  73 SW6G17    29.66S
PORT FOURCHON* CLEAR     73  68  83 SW13G18   29.71S

$$

LAZ041-044-053-054-232300-
SOUTHWEST LOUISIANA

CITY           SKY/WX    TMP DP  RH WIND       PRES   REMARKS
LAKE CHARLES   SUNNY     71  63  75 SW9G17    29.58R
LAFAYETTE      MOSUNNY   72  62  71 SW15G23   29.61R
PATTERSON      SUNNY     73  64  73 SW17G23   29.67R
SALT POINT       N/A     71  63  75 VRB6      29.64R
NEW IBERIA     SUNNY     74  63  68 SW18G29   29.63R
CHENAULT AIRPK NOT AVBL

$$

LAZ027-028-232300-
CENTRAL LOUISIANA

CITY           SKY/WX    TMP DP  RH WIND       PRES   REMARKS
FORT POLK      SUNNY     73  59  62 S15       29.52S
ALEXANDRIA INT SUNNY     72  60  66 S14G25    29.51S
ALEXANDRIA     SUNNY     73  59  61 S14       29.53S

$$

LAZ001-002-232300-
NORTHWEST LOUISIANA

CITY           SKY/WX    TMP DP  RH WIND       PRES   REMARKS
SHREVEPORT     SUNNY     72  56  57 S15       29.43R
BARKSDALE AFB  SUNNY     72  56  56 S14       29.43R
DTN SHREVEPORT SUNNY     72  54  53 S18G24    29.43R

$$

LAZ014-016-232300-
NORTHEAST LOUISIANA

CITY           SKY/WX    TMP DP  RH WIND       PRES   REMARKS
MONROE         MOSUNNY   68  60  75 SW18G25   29.48R
TALLULAH       MOSUNNY   70  58  65 SW8G20    29.50R

$$




USA.gov is the U.S. government's official web portal to all federal, state and local government web resources and services.